Theta_e
287 286 286 285 285 284 283 283 283 283 282 282 281 281 281 281 281 281 281 281 280 279 278 277 276 275 274 274 273 273 272 272 272 272 272 271 270 270 269 269 269 269 269 269 269 268 268 268 268 268 268 268 268 268 268 268 268 268 267 267 267 268 268
287 286 286 285 285 284 283 283 283 282 282 281 281 281 280 280 280 280 280 280 280 279 277 276 275 274 274 273 273 272 272 272 272 272 271 270 270 269 269 269 269 268 268 268 268 268 267 268 268 268 268 267 267 267 267 267 267 267 267 267 267 267 267
286 286 286 285 285 284 283 282 282 282 281 281 281 280 280 280 280 280 280 280 279 278 277 276 275 274 273 273 272 272 271 271 271 271 271 270 270 269 269 269 268 268 268 268 268 267 267 267 267 267 267 267 267 267 267 267 267 267 267 267 267 267 267
286 286 285 285 284 284 283 282 282 281 281 280 280 280 280 280 280 280 280 280 279 278 276 275 274 274 273 272 272 271 271 271 271 271 271 270 269 269 268 268 268 268 268 267 267 267 267 267 267 267 267 266 266 266 266 266 266 266 266 266 267 267 267
286 286 285 285 284 284 283 282 282 281 281 280 280 279 280 280 280 280 280 279 278 277 276 275 274 274 273 272 271 271 271 271 271 271 270 270 269 269 268 268 268 267 267 267 267 267 267 266 266 266 266 266 266 266 266 266 266 266 266 266 266 266 266
286 286 285 285 284 283 283 282 282 281 280 280 280 279 279 279 279 279 279 278 277 276 275 274 274 273 272 272 271 271 271 271 270 270 270 270 269 269 268 268 267 267 267 267 267 267 266 266 266 266 266 266 266 265 265 265 265 266 266 266 266 266 266
286 285 285 284 283 283 282 282 281 281 280 280 279 279 279 279 279 278 278 277 277 276 274 274 273 272 272 271 271 271 271 270 270 270 269 269 269 268 268 268 267 267 267 267 266 266 266 266 265 265 265 266 265 265 265 265 265 265 265 265 265 265 265
285 285 284 284 283 282 282 281 281 280 280 279 279 279 279 278 278 278 277 277 276 275 274 273 272 272 271 271 271 271 270 270 270 269 269 269 268 268 268 267 267 267 266 266 266 266 266 265 265 265 265 265 265 265 265 265 265 265 265 265 265 265 265
285 284 284 283 282 282 281 281 280 280 279 279 279 278 278 278 277 277 277 277 276 275 274 273 272 271 271 271 270 270 270 270 269 269 269 268 268 268 267 267 267 266 266 266 265 265 265 265 265 264 265 265 265 265 265 265 265 265 265 265 265 265 265
284 283 283 283 282 282 281 280 280 279 279 279 278 278 278 277 277 277 277 276 275 274 273 272 271 271 271 270 270 270 269 269 269 268 268 268 267 267 267 267 266 266 266 266 265 265 265 264 264 264 264 264 265 265 265 264 264 264 264 265 265 265 265
283 283 283 282 282 281 281 280 280 279 278 278 277 277 277 277 277 277 276 275 274 273 272 271 271 270 270 270 269 269 269 269 269 268 268 268 267 267 267 266 266 266 266 266 265 266 265 264 264 265 264 264 265 264 264 264 264 264 264 264 264 264 264
284 283 283 282 281 281 280 279 279 278 278 277 277 276 276 276 276 276 275 274 273 272 271 271 270 270 269 269 269 269 269 269 268 268 268 267 267 267 267 266 266 266 266 266 266 266 265 265 265 265 265 264 265 264 264 264 264 264 264 264 264 264 264
283 282 282 281 280 280 279 279 278 278 277 276 276 276 276 276 276 275 274 273 272 271 270 270 270 269 269 269 269 269 269 269 268 268 267 267 267 267 267 266 267 267 266 266 266 265 265 265 265 265 265 265 264 264 264 264 264 264 264 264 264 264 264
282 281 281 280 280 279 278 278 278 277 276 276 275 275 275 275 275 274 273 272 271 271 270 270 269 269 269 269 269 269 269 269 268 268 268 267 267 267 267 267 267 267 266 266 266 265 265 265 265 265 265 265 264 264 264 264 264 264 264 264 264 264 264
280 280 280 279 279 278 277 277 277 276 276 275 275 275 274 274 273 273 272 271 271 270 270 270 270 269 269 269 269 269 269 269 269 268 268 267 267 267 267 266 266 267 266 266 266 266 265 265 265 265 265 264 264 264 264 264 264 264 264 264 264 263 263
279 279 279 278 278 277 277 276 276 275 275 275 275 274 274 273 272 272 271 271 270 270 269 269 269 269 269 269 269 269 269 269 268 268 267 267 267 267 267 267 267 267 267 266 266 266 266 266 265 265 265 265 265 265 265 265 265 264 264 264 263 263 263
279 278 278 277 277 276 276 276 275 275 275 275 274 273 273 272 272 271 271 271 270 269 269 268 268 268 269 269 269 269 269 268 267 267 267 266 266 266 266 267 268 267 267 267 267 267 267 267 267 267 267 267 267 267 267 266 265 265 265 264 264 264 263
278 277 277 276 276 276 275 275 275 275 274 274 273 272 271 271 271 270 270 270 269 269 269 268 268 268 268 268 268 269 269 268 267 267 267 267 267 266 266 267 268 267 266 267 267 267 267 267 267 267 267 267 267 267 267 266 266 266 265 265 264 264 264
276 276 276 275 275 275 274 274 274 274 273 272 271 271 270 270 270 270 269 269 269 269 268 268 268 268 268 268 268 268 268 267 268 267 267 267 267 266 266 267 268 267 267 267 267 267 267 266 266 266 266 266 266 266 266 266 266 266 265 265 264 264 264
275 275 274 274 274 274 273 273 273 272 272 271 271 270 270 270 269 269 269 268 268 268 268 268 268 268 268 268 268 267 268 269 269 269 268 268 268 267 267 268 268 267 267 267 267 266 266 266 266 266 266 265 265 265 266 266 266 265 265 265 264 264 264
274 274 273 273 273 273 273 272 272 272 271 271 270 270 269 269 269 268 268 268 268 267 267 267 267 268 268 268 268 268 268 269 269 269 269 269 268 268 268 268 268 267 267 267 267 266 266 266 266 266 265 265 265 265 265 265 265 265 265 265 264 264 264
273 273 273 272 272 272 272 272 272 271 271 270 270 269 269 268 268 268 268 267 267 267 267 267 267 267 267 268 268 267 267 268 269 269 269 269 269 269 269 268 268 268 267 267 267 266 266 266 266 266 266 265 265 265 265 265 265 265 265 265 265 264 264
272 272 272 272 272 271 271 271 270 270 270 269 269 269 268 268 268 268 268 267 267 266 267 267 267 267 267 267 267 267 268 268 269 269 269 269 268 268 268 268 268 268 267 267 267 266 266 266 266 266 266 266 265 265 265 265 265 265 265 265 264 264 264
272 272 271 271 270 270 270 270 270 269 269 269 269 268 268 267 267 268 268 268 267 267 267 267 267 267 267 267 267 268 268 269 269 269 268 268 268 268 268 268 268 267 267 267 266 266 266 266 265 266 266 265 265 265 265 264 264 264 264 264 264 264 264
271 270 270 270 270 270 269 269 269 269 269 269 269 268 268 267 267 267 267 267 267 267 267 267 267 267 267 267 267 268 268 268 268 268 268 268 267 267 267 267 267 267 267 266 266 266 266 265 265 265 265 265 264 264 264 263 263 263 263 263 263 263 263
269 269 269 269 269 269 269 268 268 268 268 268 268 268 268 267 267 267 266 266 266 267 267 266 266 266 266 267 267 267 267 267 267 267 267 267 267 267 267 266 266 266 266 266 266 265 265 265 265 265 264 264 264 263 263 263 263 263 263 262 262 262 262
269 268 268 268 268 268 268 267 268 268 268 268 267 267 267 267 267 267 266 266 266 267 267 267 266 266 266 266 266 266 266 266 266 266 266 266 266 266 266 266 266 266 265 265 265 265 265 265 264 264 264 263 263 263 263 263 262 262 262 262 262 262 261
268 268 268 268 267 267 267 267 267 267 267 267 266 266 267 267 267 267 266 266 267 267 267 266 266 266 266 266 265 265 265 265 265 264 265 265 265 265 265 265 264 264 265 265 265 265 264 264 264 263 263 263 263 263 262 262 262 262 262 261 261 261 261
267 267 267 267 266 266 266 266 267 267 266 266 265 266 266 266 267 267 267 267 267 267 267 266 266 266 266 265 265 265 265 265 264 264 264 265 265 265 265 264 264 264 264 264 264 264 264 264 263 263 263 263 262 262 262 262 261 261 261 261 260 260 260
267 267 266 266 266 266 266 266 266 266 266 265 265 265 266 266 267 267 267 267 267 267 267 266 266 266 266 265 265 265 265 265 265 264 265 265 265 264 264 264 264 264 264 264 264 264 264 263 263 263 262 262 262 262 261 261 261 261 260 260 259 259 259
267 266 266 266 266 266 266 266 266 266 266 266 266 266 267 267 267 267 267 267 267 266 266 266 266 265 265 265 265 265 265 265 265 264 264 264 264 264 264 264 264 264 264 263 263 263 263 263 263 262 262 262 262 261 261 261 260 260 259 259 259 258 258
267 266 266 266 266 266 266 266 266 266 266 266 266 267 267 267 267 267 267 267 266 266 265 265 265 265 265 265 265 265 265 264 264 264 264 264 264 264 264 264 264 264 263 263 263 263 263 262 262 262 262 262 261 261 261 260 260 259 259 258 258 258 257
267 266 266 266 266 266 266 266 266 266 265 266 266 266 266 266 266 266 267 266 266 266 265 265 265 264 264 264 264 264 264 264 264 264 264 263 263 263 263 263 263 263 263 263 262 262 262 262 262 262 262 261 261 260 260 259 259 259 258 258 257 257 257
267 266 266 266 266 266 265 265 265 265 265 265 265 265 265 265 265 265 265 265 265 265 265 265 264 264 264 264 263 263 263 263 263 263 263 263 263 263 263 263 263 262 262 262 262 261 261 261 261 261 261 260 260 259 259 258 258 258 258 257 257 257 256
267 267 267 266 266 266 266 266 266 266 265 265 265 265 264 264 264 264 264 264 264 264 264 264 263 263 263 263 263 263 263 263 263 263 263 263 263 263 262 262 262 262 262 261 261 261 260 260 260 260 259 259 259 258 258 258 258 258 257 257 257 256 256
267 267 266 266 266 266 265 265 265 265 265 265 264 263 262 262 262 262 263 264 264 264 264 263 263 262 262 262 262 262 262 262 262 262 262 262 262 262 262 262 262 261 261 261 261 260 260 259 259 259 258 258 258 258 258 257 257 257 257 256 256 255 255
Wind_Speed
51 52 52 51 51 52 52 52 52 52 52 51 51 50 49 48 46 44 43 39 36 34 32 30 29 29 29 28 28 29 28 27 25 25 25 26 27 28 29 29 30 35 40 38 33 32 31 30 28 27 27 28 28 28 28 30 31 32 31 29 28 30 30
51 51 51 51 52 51 52 52 52 52 52 52 51 50 49 48 46 45 42 39 37 34 32 31 30 30 29 29 30 30 30 28 26 25 26 26 28 29 29 30 31 33 37 39 35 29 26 27 28 29 28 27 29 29 29 30 31 31 29 28 31 34 36
49 50 51 51 52 51 51 52 51 52 52 52 51 50 49 49 47 45 43 40 37 34 31 31 31 30 30 30 31 32 31 29 27 26 27 28 28 29 30 30 31 32 35 37 35 30 27 29 30 32 30 28 29 30 29 30 31 31 30 31 34 35 36
47 49 50 51 51 51 51 52 52 51 52 51 51 50 50 49 47 45 43 40 36 33 31 31 31 31 30 31 32 33 31 29 28 28 28 29 30 30 31 31 31 32 33 34 35 33 31 29 29 31 31 28 27 29 29 30 31 32 32 33 34 34 35
46 47 49 50 51 51 51 51 51 51 51 51 50 50 49 48 47 45 42 39 35 32 31 32 32 31 31 32 33 33 32 30 29 29 29 30 31 31 32 32 32 32 32 34 36 35 32 30 28 30 32 30 28 29 30 31 32 32 33 33 33 33 33
44 46 47 48 49 49 50 50 50 50 50 50 50 49 48 47 46 44 41 37 34 32 32 32 32 32 32 33 34 33 32 31 30 30 30 30 31 31 32 32 32 32 32 33 35 36 35 33 31 31 33 33 30 30 31 32 33 33 32 32 32 32 32
42 44 45 46 47 48 48 49 49 49 49 49 49 48 47 47 45 42 39 35 33 32 32 32 32 33 33 34 34 33 32 31 31 31 31 31 32 32 32 33 33 33 34 35 36 37 37 36 33 32 33 34 31 31 32 31 32 34 34 32 32 32 31
39 41 42 43 44 45 46 47 48 48 48 48 48 47 47 46 44 41 37 35 33 33 33 33 33 34 34 34 34 33 32 32 31 31 32 33 33 33 34 34 35 35 36 36 38 39 39 38 37 35 35 35 33 33 34 32 32 35 35 33 32 31 30
37 38 39 40 42 43 44 45 46 46 47 47 47 47 46 45 43 39 36 34 33 33 33 34 34 34 34 33 33 33 32 32 32 32 33 34 34 35 35 35 36 37 38 39 39 41 40 39 39 37 36 35 34 35 35 33 32 34 34 32 31 31 29
34 36 37 38 39 40 41 43 44 44 45 45 45 45 45 43 40 36 34 33 33 33 34 34 34 34 33 33 33 32 32 32 32 33 34 35 35 36 36 37 38 38 39 40 40 41 41 39 40 39 36 35 35 34 33 32 31 32 33 31 32 33 30
32 33 34 35 37 38 39 40 41 41 42 42 43 43 42 40 37 34 33 33 33 34 34 34 34 34 33 33 33 32 32 32 33 34 35 36 36 37 38 38 39 40 40 40 41 42 40 39 40 40 37 36 35 34 32 31 30 31 31 30 31 32 31
29 31 32 33 34 36 37 38 38 39 39 39 40 40 39 36 34 33 33 33 34 34 34 35 35 34 34 34 33 32 32 32 34 35 36 37 37 37 38 37 38 39 39 40 41 42 42 41 41 41 39 37 36 34 33 32 31 31 31 32 32 33 32
28 30 31 32 33 34 35 36 36 36 36 37 36 36 35 34 33 32 33 33 34 34 35 35 35 35 36 35 33 33 33 34 35 36 37 37 37 37 37 36 36 36 37 38 41 42 43 43 42 42 41 39 36 35 33 32 32 32 33 34 34 35 34
27 28 29 30 31 32 33 34 34 33 33 34 33 31 31 31 32 32 32 33 34 34 35 34 34 35 35 33 33 33 34 35 36 36 36 35 35 36 36 36 36 36 37 39 41 43 45 45 43 43 44 41 37 36 35 35 35 35 36 37 38 38 36
26 27 27 28 29 30 32 32 31 30 30 30 29 28 27 29 31 32 33 33 33 33 34 34 34 34 34 33 33 33 33 34 34 34 33 33 34 34 34 36 36 35 36 39 41 43 46 46 46 45 45 43 41 40 39 38 37 37 38 39 39 38 37
25 26 26 26 27 28 29 28 27 27 27 27 27 26 26 28 31 33 33 34 33 33 34 34 35 35 35 35 34 33 33 33 32 32 32 32 33 32 33 34 33 32 33 35 36 38 40 41 42 41 40 38 37 35 34 32 33 35 37 39 41 40 40
24 24 24 25 25 25 25 24 23 23 25 26 27 27 28 30 32 33 35 35 35 35 35 35 35 35 35 35 35 34 33 31 29 30 32 32 33 33 34 35 34 33 33 32 32 33 35 35 35 34 34 33 32 33 32 32 35 36 36 39 41 41 39
22 22 21 21 20 20 20 21 21 22 24 27 27 27 29 31 32 34 36 37 38 38 38 38 37 36 36 37 36 34 32 29 28 30 32 34 35 36 38 37 35 36 36 32 30 32 33 35 37 37 37 36 36 35 35 36 39 38 36 39 41 40 37
18 18 17 17 17 18 20 22 23 24 26 27 27 27 28 30 32 34 36 37 38 39 39 39 38 37 37 36 35 34 32 30 29 31 34 35 37 39 40 37 34 36 37 34 32 31 30 32 35 37 39 39 39 39 37 37 37 34 34 35 36 35 33
16 16 16 17 19 21 23 25 26 26 26 27 27 27 28 30 32 34 36 37 37 38 38 38 38 38 36 35 34 34 32 30 29 31 33 34 37 40 40 36 35 36 36 35 34 32 29 28 28 30 33 36 37 39 39 39 38 36 35 34 33 32 31
16 18 19 21 23 24 25 26 27 27 27 26 27 27 27 29 32 34 36 37 37 38 39 39 39 38 36 35 34 33 32 30 28 29 32 35 38 39 37 36 37 37 35 35 36 34 31 28 26 27 29 30 32 34 35 36 37 38 39 39 38 36 36
19 21 23 24 25 26 27 27 27 27 26 25 26 27 27 29 32 33 35 37 38 38 39 39 39 38 36 35 33 33 32 31 29 28 30 33 35 35 34 34 36 37 36 36 36 36 35 32 30 29 29 30 31 32 32 33 34 36 38 39 40 40 40
22 24 26 26 27 27 27 27 27 26 26 25 24 26 27 28 30 30 32 35 38 38 38 38 38 37 36 34 34 33 32 30 29 28 29 30 31 32 32 32 34 36 37 38 38 37 37 36 34 33 33 32 32 32 32 32 34 35 36 38 39 40 41
24 25 26 27 27 27 27 27 27 26 25 25 24 24 25 27 28 29 30 33 37 38 38 38 37 37 36 35 34 33 30 28 27 27 28 28 29 30 30 31 32 32 33 35 37 38 39 39 38 37 36 34 32 31 30 31 31 32 33 35 36 37 38
25 25 26 27 28 27 27 27 27 27 26 25 23 23 24 25 27 28 29 33 36 37 37 38 37 36 35 34 32 30 28 28 29 29 29 30 30 31 31 32 33 32 31 30 32 34 36 37 37 36 35 33 30 29 29 29 29 31 31 33 34 35 36
24 25 26 27 28 28 28 27 28 28 27 26 25 24 23 24 25 27 29 32 35 36 37 37 36 34 33 34 34 33 34 35 35 35 35 35 35 35 34 34 34 35 34 33 32 32 32 32 32 32 31 30 29 29 30 30 30 30 31 32 33 34 36
25 26 27 28 28 28 28 28 28 28 28 27 26 24 23 24 24 25 27 30 33 34 36 37 37 37 37 38 38 39 39 39 38 38 39 39 38 38 38 38 37 37 38 37 37 36 34 31 30 30 30 31 31 31 32 32 31 32 32 32 33 35 38
26 27 28 28 29 29 29 29 29 28 27 27 26 24 24 24 25 25 26 28 29 30 31 32 33 34 36 38 39 39 39 39 39 38 39 40 39 39 39 39 39 39 39 39 39 38 36 34 33 32 33 34 34 33 33 33 33 33 33 33 34 36 40
26 26 26 27 27 28 29 30 29 27 25 25 24 25 25 25 25 24 24 24 24 25 26 27 29 30 32 34 36 37 38 39 39 38 38 38 37 35 36 36 36 36 37 37 36 36 36 35 34 33 33 33 34 34 34 34 34 34 35 34 35 38 40
24 24 23 25 26 27 27 28 27 24 23 22 22 23 25 27 27 26 25 24 24 25 27 29 29 30 31 31 33 34 36 36 36 36 36 36 34 33 34 35 35 35 35 34 34 34 34 34 34 33 33 34 34 35 35 35 35 35 35 35 35 36 37
22 21 20 22 25 27 28 29 29 27 26 24 23 24 24 26 27 28 28 27 26 28 32 33 34 34 33 32 33 34 35 35 35 35 35 35 35 35 35 36 37 36 36 35 35 34 34 34 34 35 35 36 36 36 36 35 35 35 34 35 34 35 36
22 21 20 20 22 23 25 27 27 26 25 24 24 23 23 24 25 25 25 24 23 25 28 31 33 36 36 36 36 36 36 36 36 36 36 35 36 36 36 37 37 36 36 36 36 36 36 36 36 36 36 36 36 35 35 35 35 34 34 34 35 35 37
21 21 21 21 20 21 22 23 24 24 24 26 27 28 29 31 31 30 30 30 31 31 31 30 31 32 33 34 35 35 36 36 36 36 36 36 36 36 36 36 36 36 35 36 36 36 36 36 35 34 35 35 35 35 34 34 34 35 35 35 35 36 37
20 20 21 21 21 21 21 22 23 24 25 27 28 30 31 33 34 35 36 36 38 40 40 39 37 36 35 34 34 34 34 34 34 35 35 36 36 36 36 36 35 35 35 35 34 35 35 34 33 33 33 35 35 35 35 35 35 35 35 35 36 36 37
22 21 21 22 23 23 23 24 23 24 23 23 24 24 24 26 28 31 33 34 36 38 40 40 40 40 39 38 37 37 37 36 35 35 35 35 35 35 35 35 34 34 34 34 33 33 32 31 32 32 33 34 35 35 35 35 35 35 35 36 36 36 36
26 24 23 23 23 24 25 25 25 25 25 24 23 21 20 22 25 28 30 31 32 33 34 35 35 35 35 35 34 35 35 35 35 35 34 33 32 32 32 33 33 33 33 32 32 32 32 32 32 33 32 33 34 35 35 35 35 35 35 35 35 35 34
Wind_Direction
247 248 248 248 247 246 244 243 242 241 240 238 238 237 236 236 236 238 240 241 242 242 242 244 246 248 250 251 252 251 250 252 256 259 260 258 258 257 255 256 256 260 269 273 273 274 278 280 279 277 278 280 279 277 276 273 272 279 286 288 287 285 281
245 246 247 247 247 246 244 243 243 241 240 238 237 236 235 235 235 237 239 240 240 241 242 243 244 246 248 249 250 249 248 252 256 258 260 258 256 256 256 256 257 260 266 271 273 273 273 274 275 276 275 276 276 274 273 273 275 279 280 276 274 274 275
244 245 246 246 246 245 243 243 242 241 240 239 237 236 235 235 236 238 240 240 240 241 242 243 244 245 247 247 247 246 247 251 256 258 259 259 257 256 256 256 256 259 262 268 271 268 264 265 269 273 273 271 271 271 269 271 275 277 276 274 272 273 275
244 244 245 245 245 244 243 243 242 240 240 239 238 237 236 237 239 240 241 241 241 240 241 243 245 248 250 248 246 246 247 251 255 257 258 259 257 256 257 256 256 256 258 262 266 266 264 265 267 271 274 271 269 270 269 270 273 275 276 276 274 275 277
245 245 245 246 246 245 244 244 243 242 240 239 239 238 239 240 241 241 241 241 241 241 241 243 246 250 251 249 246 247 250 253 256 258 259 259 259 258 258 258 257 256 255 256 259 262 264 264 263 266 270 269 268 270 271 273 274 276 278 278 278 278 280
247 247 247 247 247 246 245 245 244 243 242 241 240 240 240 241 241 240 240 240 241 242 242 244 247 250 249 248 249 251 253 256 258 259 260 261 261 261 261 260 258 258 257 256 258 261 263 263 262 263 267 268 267 268 271 275 276 277 278 279 280 281 281
249 248 248 248 247 246 246 246 245 244 243 242 241 241 241 241 240 239 238 239 241 243 244 246 247 248 248 249 252 255 257 258 260 261 261 262 262 262 261 260 259 258 258 259 261 263 264 264 262 262 265 269 270 269 270 271 274 276 277 278 279 281 282
252 250 250 249 248 248 247 246 246 245 243 242 241 242 241 240 238 237 237 240 243 245 246 247 247 248 249 251 254 256 258 260 262 262 261 261 261 260 259 259 259 259 258 259 261 263 264 264 263 262 263 266 267 266 266 267 269 274 278 280 280 281 281
254 252 251 250 249 249 248 247 246 246 245 243 241 241 240 238 237 237 239 242 245 247 248 248 248 249 251 252 253 255 258 261 262 262 262 261 260 259 258 259 259 258 257 258 258 261 262 262 262 262 263 264 263 264 267 268 268 272 275 278 278 277 276
254 253 253 252 251 250 248 247 247 245 244 243 241 240 238 237 236 238 242 246 248 248 249 249 250 252 253 253 253 254 257 260 261 261 262 261 260 259 258 258 258 258 258 257 257 259 260 259 261 262 261 262 265 267 268 267 266 269 273 274 274 274 273
256 255 255 254 253 251 249 248 247 244 242 240 239 238 237 237 238 242 246 250 251 251 251 252 253 253 254 253 254 255 257 259 260 260 261 261 260 259 259 259 258 257 257 256 257 259 258 256 259 263 262 262 266 266 264 264 265 266 268 269 270 272 274
260 259 258 255 253 252 250 248 247 244 240 237 236 237 237 238 241 247 250 252 253 253 253 253 254 254 254 254 255 257 259 259 259 260 260 260 259 259 259 258 258 258 259 258 258 258 258 257 259 263 263 262 264 265 263 262 262 262 263 264 265 268 270
263 261 258 256 254 253 250 248 246 243 238 235 234 236 239 243 247 251 254 255 255 254 253 253 254 254 254 255 257 258 259 259 260 259 259 258 258 257 257 257 257 258 260 262 261 259 259 260 261 263 264 264 264 264 262 260 260 260 259 260 262 264 266
264 262 260 257 256 253 250 248 245 242 238 235 234 235 240 249 255 256 257 257 256 254 253 253 254 255 256 257 257 258 258 258 259 259 259 257 255 255 257 257 257 256 254 254 256 258 261 263 263 263 265 265 263 262 261 259 261 262 261 263 266 268 268
266 264 261 258 255 251 249 248 246 243 238 235 236 237 239 246 254 258 258 258 257 256 257 258 258 259 261 262 262 262 261 261 262 262 262 261 260 260 261 260 260 260 257 253 252 253 257 261 262 264 265 266 265 265 265 265 266 267 267 267 269 270 269
267 264 260 257 254 250 248 247 245 241 237 236 240 243 242 242 247 252 254 255 256 258 260 262 262 263 264 266 266 267 267 268 268 268 267 267 267 268 267 267 267 267 265 262 259 257 258 259 261 264 266 267 267 267 268 268 266 264 264 262 263 265 266
268 264 260 255 251 248 247 245 241 238 240 244 248 249 246 245 245 245 247 249 251 253 256 258 260 262 264 265 266 267 268 266 262 264 267 269 270 272 271 273 274 271 267 264 262 263 264 264 265 265 267 268 268 269 270 265 258 257 258 257 258 260 263
267 262 258 253 249 247 245 244 244 245 249 253 254 252 250 250 249 246 245 246 248 251 253 254 256 258 259 262 265 267 266 259 249 251 257 261 264 266 266 270 274 272 269 267 261 259 260 260 260 261 263 264 264 265 265 260 257 260 260 256 256 258 261
262 258 254 250 248 248 250 252 254 256 258 259 258 254 252 251 251 249 249 250 252 253 255 256 257 258 258 261 264 265 262 258 252 250 253 255 256 257 260 267 271 270 271 272 268 264 260 256 253 253 253 255 255 255 254 252 254 258 257 253 254 256 257
258 257 256 256 256 258 261 263 265 265 265 264 261 257 252 249 249 250 251 253 255 256 257 258 259 260 260 260 261 262 263 265 262 258 259 260 256 256 261 268 269 268 271 272 271 271 270 263 256 250 249 250 251 252 252 251 252 254 254 254 254 252 250
261 263 265 267 269 269 270 270 271 270 268 265 263 259 253 249 249 251 252 254 256 257 258 259 260 261 263 263 262 263 264 266 264 261 263 263 261 263 268 270 268 267 270 270 269 270 270 267 260 253 248 247 248 249 250 251 251 253 255 257 257 256 256
270 272 274 275 276 276 275 275 274 273 270 267 264 261 256 252 251 252 254 255 256 256 257 260 262 264 266 267 267 266 267 268 268 264 263 263 263 266 268 268 266 266 266 265 265 266 266 264 261 256 251 249 248 248 249 250 251 252 253 256 258 260 262
277 279 279 279 279 279 279 278 277 276 275 271 267 263 259 256 253 252 253 255 256 257 259 263 265 266 268 268 267 268 270 272 271 267 264 263 262 263 263 264 263 262 260 259 260 261 262 262 261 259 257 254 252 252 252 253 253 253 254 255 257 259 262
281 281 281 282 282 282 282 283 282 280 278 275 270 264 260 257 254 250 250 253 257 260 262 264 266 267 268 268 268 270 271 271 268 266 264 263 260 257 256 255 255 253 252 252 253 254 255 257 257 259 261 261 260 260 259 257 256 255 255 255 257 258 260
284 285 285 286 287 287 287 287 286 285 284 281 275 269 263 259 256 253 249 249 252 256 259 262 265 267 268 269 269 269 267 265 262 258 255 254 253 253 251 249 249 249 248 247 247 249 250 252 254 256 260 263 264 262 259 256 254 254 255 257 259 260 260
288 289 289 290 291 293 293 293 292 291 289 286 283 277 271 265 261 258 254 252 251 252 253 255 257 257 259 262 262 261 259 259 258 256 254 252 250 252 254 253 251 251 250 249 250 251 252 252 254 255 255 255 254 253 253 253 253 254 256 257 259 260 261
294 294 294 295 295 295 295 293 292 292 292 291 290 286 280 273 266 261 257 255 255 256 256 256 257 257 257 258 258 257 258 258 258 258 258 257 254 254 256 257 256 256 256 255 255 257 259 259 257 255 253 251 251 253 255 255 254 254 255 256 257 258 260
297 297 297 297 297 297 295 293 292 293 295 294 292 287 281 275 270 266 264 263 264 265 265 264 264 262 260 260 259 259 258 257 257 257 258 259 259 257 257 259 259 259 260 260 260 261 263 262 259 256 255 255 255 256 257 256 255 255 255 256 255 256 260
297 298 298 296 294 293 292 292 293 295 296 295 293 290 286 283 281 278 275 273 273 274 272 269 264 261 259 257 257 258 258 257 257 258 258 259 259 258 258 259 259 258 259 261 261 261 262 261 259 257 256 255 255 256 257 257 257 256 257 257 256 258 263
299 300 299 295 294 294 293 294 296 299 301 296 286 281 282 286 289 289 287 284 282 279 275 271 266 263 260 259 257 256 257 257 258 259 259 259 258 257 257 258 259 259 259 259 259 260 260 259 258 256 254 253 255 257 259 259 259 259 259 260 259 261 266
302 302 296 291 291 294 296 298 302 304 305 297 284 278 281 283 282 282 284 284 281 275 271 269 267 265 263 262 260 260 260 261 261 260 260 261 260 259 258 257 259 260 260 258 257 257 256 256 255 255 255 256 258 259 259 259 259 260 260 261 262 265 268
304 301 296 289 287 288 290 294 298 300 300 294 286 283 281 275 269 267 267 268 266 263 261 261 260 260 261 261 261 262 262 262 262 262 262 261 260 259 258 257 258 260 259 257 255 254 253 253 255 257 259 260 260 259 258 257 257 258 260 262 264 266 269
306 304 300 294 290 287 284 283 283 282 279 276 273 270 268 265 264 263 261 261 261 262 260 257 255 254 256 257 258 259 260 260 260 261 261 260 258 258 258 259 259 258 256 254 253 253 253 254 256 258 260 260 258 256 255 256 257 259 261 262 264 266 268
310 309 307 303 300 297 293 290 287 282 279 277 274 272 271 270 270 268 265 263 263 264 264 264 262 261 259 258 257 257 258 258 257 257 258 257 257 258 258 257 256 253 251 251 250 250 251 253 254 256 258 257 256 254 254 256 257 259 261 263 265 268 270
316 315 314 311 310 308 306 304 300 297 294 291 288 286 284 280 277 273 270 267 264 264 264 265 264 264 263 261 260 259 259 259 259 258 257 257 256 254 252 250 248 247 248 249 250 250 251 253 255 256 256 256 255 254 255 256 258 261 263 266 267 269 270
321 320 317 314 314 313 311 309 307 306 305 304 302 300 293 285 280 278 277 276 273 271 270 270 269 268 267 264 263 261 260 260 259 257 255 252 250 247 244 243 242 242 244 246 250 253 256 257 257 256 255 254 254 255 257 259 261 263 265 266 267 268 269